Thermal, CA

11:48 PM PDT on August 28, 2016 (GMT -0700)
Desert Resorts Regional

Weather History for KTRM - November, 2012

Change the Weather History Date:

Sunday, November 18, 2012

  Actual Average Record
Temperature  
Mean Temperature 64 °F 60 °F  
Max Temperature 79 °F 78 °F 89 °F (2008)
Min Temperature 48 °F 42 °F 26 °F (1958)
Degree Days  
Heating Degree Days 1 6  
Month to date heating degree days 68 60  
Since 1 July heating degree days 68 71  
Cooling Degree Days 0 1  
Month to date cooling degree days 43 33  
Year to date cooling degree days 4272 3686  
Growing Degree Days 14 (Base 50)    
Moisture  
Dew Point 48 °F    
Average Humidity 55    
Maximum Humidity 80    
Minimum Humidity 30    
Precipitation  
Precipitation 0.00 in 0.01 in 0.14 in (1964)
Month to date precipitation T 0.12  
Year to date precipitation 2.40 2.74  
Since 1 July precipitation 2.04  
Snow  
Snow 0.00 in - - ()
Month to date snowfall 0.0  
Year to date snowfall 0.0  
Snow Depth 0.00 in    
Sea Level Pressure  
Sea Level Pressure 30.03 in    
Wind  
Wind Speed 3 mph (WNW)    
Max Wind Speed 12 mph    
Max Gust Speed 15 mph    
Visibility 10 miles    
Events      
T = Trace of Precipitation, MM = Missing Value Source: NWS Daily Summary

Daily Weather History Graph

Daily Weather History Graph

Search for Another Location

Airport or City:

Trip Planner

Search our weather history database for the weather conditions in past years. The results will help you decide how hot, cold, wet, or windy it might be!

Date:

Astronomy

Nov. 18, 2012 Rise Set
Actual Time 6:19 AM PST 4:39 PM PST
Civil Twilight 5:53 AM PST 5:06 PM PST
Nautical Twilight 5:22 AM PST 5:36 PM PST
Astronomical Twilight 4:53 AM PST 6:06 PM PST
Moon 10:52 AM PST (11/18) 10:00 PM PST (11/18)
Length of Visible Light 11h 13m
Length of Day
10h 20m
Waxing Crescent, 31% of the Moon is Illuminated
Nov 18
Waxing Crescent
Nov 20
First Quarter
Nov 28
Full
Dec 6
Last Quarter
Dec 13
New

Hourly Weather History & Observations

Time (PST) Temp. Dew Point Humidity Pressure Visibility Wind Dir Wind Speed Gust Speed Precip Events Conditions
12:52 AM 63.0 °F 50.0 °F 63% 30.01 in 10.0 mi North 6.9 mph - N/A   Clear
1:52 AM 60.1 °F 48.9 °F 67% 30.00 in 10.0 mi West 3.5 mph - N/A   Clear
2:52 AM 62.1 °F 50.0 °F 65% 29.99 in 10.0 mi WNW 5.8 mph - N/A   Clear
3:52 AM 55.9 °F 48.0 °F 75% 29.99 in 10.0 mi Calm Calm - N/A   Clear
4:52 AM 54.0 °F 46.9 °F 77% 29.99 in 10.0 mi Calm Calm - N/A   Clear
5:52 AM 50.0 °F 44.1 °F 80% 30.01 in 10.0 mi Calm Calm - N/A   Clear
6:52 AM 50.0 °F 45.0 °F 83% 30.02 in 10.0 mi Calm Calm - N/A   Clear
7:52 AM 61.0 °F 50.0 °F 67% 30.05 in 10.0 mi Calm Calm - N/A   Clear
8:52 AM 69.1 °F 52.0 °F 54% 30.06 in 10.0 mi West 6.9 mph - N/A   Clear
9:52 AM 73.0 °F 50.0 °F 44% 30.06 in 10.0 mi West 6.9 mph - N/A   Clear
10:52 AM 73.9 °F 48.0 °F 40% 30.05 in 10.0 mi WNW 5.8 mph - N/A   Clear
11:52 AM 75.9 °F 46.0 °F 35% 30.03 in 10.0 mi Calm Calm - N/A   Clear
12:52 PM 77.0 °F 45.0 °F 32% 30.01 in 10.0 mi Calm Calm - N/A   Clear
1:52 PM 78.1 °F 46.0 °F 32% 30.00 in 10.0 mi SSE 5.8 mph - N/A   Clear
2:52 PM 78.1 °F 45.0 °F 31% 30.00 in 10.0 mi Calm Calm - N/A   Clear
3:52 PM 75.9 °F 46.9 °F 36% 30.00 in 10.0 mi South 5.8 mph - N/A   Clear
4:52 PM 66.9 °F 53.1 °F 61% 30.00 in 10.0 mi ESE 5.8 mph - N/A   Clear
5:52 PM 64.9 °F 53.1 °F 65% 30.02 in 10.0 mi NE 3.5 mph - N/A   Clear
6:52 PM 57.9 °F 48.9 °F 72% 30.04 in 10.0 mi WSW 5.8 mph - N/A   Clear
7:52 PM 62.1 °F 48.0 °F 60% 30.06 in 10.0 mi WNW 5.8 mph - N/A   Clear
8:52 PM 57.0 °F 46.9 °F 69% 30.07 in 10.0 mi Calm Calm - N/A   Clear
9:52 PM 64.9 °F 50.0 °F 58% 30.08 in 10.0 mi NW 8.1 mph - N/A   Clear
10:52 PM 64.9 °F 51.1 °F 61% 30.09 in 10.0 mi NNW 10.4 mph - N/A   Clear
11:52 PM 64.9 °F 51.1 °F 61% 30.09 in 10.0 mi NNW 10.4 mph - N/A   Clear